Theta_e
302 303 301 298 299 300 301 302 301 302 302 303 304 303 303 303 303 304 303 303 303 303 302 302 302 301 302 302 304 305 314 318 321 323 329 332 330 330 329 329 328 332 332 331
293 299 300 301 303 303 304 304 304 304 304 304 304 304 304 304 303 303 304 303 303 303 304 303 302 301 301 301 301 306 312 322 322 323 326 327 328 327 329 331 328 329 329 329
301 300 301 302 303 304 303 304 303 304 304 304 304 304 304 304 304 304 304 304 303 303 303 303 303 302 302 302 301 302 307 312 321 322 325 327 329 327 329 331 330 328 330 323
300 300 302 302 302 303 304 304 305 306 306 307 304 304 304 303 302 303 304 304 303 303 303 303 303 303 302 302 302 302 306 308 318 321 324 326 329 328 330 328 329 329 327 327
299 301 301 301 302 303 304 304 304 305 305 305 305 306 301 302 302 299 299 299 300 302 303 303 303 302 302 302 303 303 313 313 315 321 325 326 329 327 329 325 327 329 328 327
299 301 301 302 303 302 302 301 301 303 305 303 300 301 298 300 298 298 298 299 299 300 302 302 303 302 301 301 302 304 311 315 313 319 323 327 327 328 326 325 328 325 328 327
294 295 302 304 302 303 301 296 296 301 299 299 299 303 298 298 298 297 298 298 299 300 301 302 302 302 301 301 301 303 304 305 311 318 322 326 326 328 327 327 328 327 328 328
287 295 293 300 301 302 300 302 303 303 304 303 301 303 300 297 297 296 297 299 302 300 302 302 301 301 301 301 302 302 308 314 317 319 321 323 326 327 328 327 327 327 326 326
293 293 297 299 303 301 299 301 301 303 296 301 295 296 302 295 296 295 296 299 301 301 303 305 305 304 304 304 303 304 313 315 318 321 323 324 325 324 323 327 326 326 326 325
295 297 292 297 301 299 297 299 299 299 301 300 300 298 295 294 295 294 294 295 297 299 300 301 302 302 304 303 303 309 313 315 318 320 321 323 325 325 325 326 326 324 324 322
296 297 295 298 299 300 298 298 298 303 302 301 302 297 294 293 294 294 292 293 294 295 297 299 300 301 302 304 307 309 311 312 314 317 319 320 322 323 323 323 322 322 322 322
296 299 300 298 300 299 298 298 298 301 299 297 300 297 293 292 293 293 291 291 291 293 294 297 298 299 302 302 303 307 308 310 312 315 315 318 318 319 319 319 319 319 319 320
296 294 298 299 299 300 298 298 299 298 300 297 295 295 294 291 292 292 291 290 290 291 293 294 296 296 296 298 301 302 303 305 308 311 313 315 315 316 316 316 316 315 316 317
297 299 301 302 302 302 299 297 297 297 296 298 296 295 292 291 291 291 290 290 290 290 290 291 292 293 295 297 298 298 300 303 304 307 311 312 311 312 312 312 312 312 312 312
291 286 295 295 295 302 299 297 295 298 298 297 296 294 293 291 290 290 290 290 290 290 290 290 290 291 293 296 297 297 301 304 305 307 307 307 307 308 308 310 311 310 311 311
292 285 290 290 299 301 299 297 295 296 297 296 298 295 293 291 290 289 289 289 289 289 289 290 289 291 294 294 297 299 300 300 302 302 302 302 304 305 307 307 308 309 308 308
290 285 284 291 295 297 295 297 294 295 296 296 298 297 293 291 290 289 289 289 288 288 289 289 290 291 293 296 298 299 299 300 300 301 300 301 303 304 304 304 305 306 306 306
286 282 284 288 288 294 294 294 293 292 295 295 295 295 295 292 291 289 289 288 288 288 290 290 291 292 293 295 297 298 299 300 300 300 300 299 301 301 302 302 302 301 301 301
292 283 284 296 285 292 294 292 292 292 295 293 294 293 293 296 295 291 290 289 289 289 290 291 291 292 294 296 296 296 296 297 297 296 296 296 297 298 298 298 298 297 297 296
290 288 287 283 286 289 295 292 292 291 292 293 292 291 291 293 293 290 291 292 292 294 294 294 294 294 294 294 295 297 296 295 295 295 295 295 295 295 295 295 294 293 293 292
276 275 284 280 285 287 292 291 291 289 293 293 291 290 289 290 289 288 290 290 291 293 293 294 294 294 294 294 294 295 295 294 294 295 295 296 296 295 294 293 293 292 292 292
284 284 283 278 281 289 290 292 295 293 293 291 290 290 289 289 288 288 289 289 289 290 289 289 290 290 291 291 292 293 294 294 293 293 293 294 294 294 294 294 294 294 293 292
287 286 285 289 289 291 291 291 292 293 292 291 290 290 290 289 289 289 289 290 290 290 290 289 290 290 289 289 289 290 289 289 290 291 292 293 294 294 294 294 294 294 293 293
285 286 284 285 286 289 291 292 293 292 291 291 290 290 290 290 290 290 290 290 290 290 290 288 287 287 288 287 288 288 288 288 289 289 289 289 289 289 290 290 292 293 293 293
287 285 283 284 287 290 291 292 294 292 291 291 290 290 290 290 290 290 290 290 290 290 289 287 288 288 288 288 287 287 288 288 288 288 288 288 288 288 289 289 289 289 289 289
287 285 287 287 291 292 294 295 294 292 291 291 291 291 290 290 290 290 290 290 290 289 289 287 288 288 287 288 288 288 287 287 287 288 288 288 288 287 286 287 288 288 288 288
Wind_Speed
4 4 11 10 10 14 16 18 22 26 22 20 21 25 24 22 22 26 29 30 31 29 20 18 21 27 23 23 24 26 23 23 24 23 23 40 40 34 28 31 34 35 32 33
5 9 14 9 11 14 16 20 24 21 19 13 18 24 21 20 18 29 30 30 33 32 29 28 27 28 26 30 28 25 21 20 25 24 25 28 34 29 32 28 35 35 35 34
7 13 16 12 12 15 18 15 18 22 22 18 22 24 24 20 26 32 33 33 31 29 27 24 29 28 27 30 28 29 27 21 26 24 25 27 31 31 30 34 31 38 38 36
7 8 4 15 13 15 14 8 12 14 13 6 4 10 2 8 8 7 19 21 31 35 36 33 28 30 27 25 24 30 29 26 25 24 27 27 36 34 40 34 31 32 40 35
7 13 15 13 9 10 11 18 15 20 17 13 8 5 5 7 9 15 13 18 20 21 33 34 29 27 25 23 22 23 23 28 29 25 24 25 34 41 38 31 30 25 26 33
15 20 6 6 11 15 19 12 20 11 6 4 3 6 4 5 11 17 20 26 21 24 20 27 29 29 26 25 23 24 25 29 29 25 23 27 39 30 24 29 31 27 27 30
8 7 6 4 8 7 12 7 4 4 2 5 2 2 2 15 17 14 17 32 36 28 22 16 30 29 27 25 25 23 23 27 23 23 25 23 35 35 29 28 25 27 29 27
2 9 3 5 7 10 11 3 3 5 4 8 4 3 1 18 18 24 27 29 26 16 12 11 28 25 22 22 23 22 19 19 21 20 19 27 21 31 32 23 29 27 24 26
4 7 5 8 6 9 8 7 14 4 4 2 2 5 1 21 18 20 25 29 2 12 16 19 22 19 14 13 14 15 15 20 19 17 18 21 17 18 36 26 18 27 27 24
4 7 3 7 6 7 5 8 5 3 4 4 3 4 9 21 22 18 17 21 18 16 15 12 10 6 6 10 10 12 14 17 18 16 15 19 20 18 20 25 23 20 23 24
3 4 8 5 7 15 11 8 5 4 5 5 6 1 11 18 17 15 13 18 20 23 19 11 6 5 5 6 10 12 13 15 16 16 16 16 15 15 13 17 18 19 18 19
3 4 6 4 4 12 10 10 8 3 5 3 5 2 15 15 13 15 15 19 22 23 17 12 7 5 6 10 11 13 15 17 17 17 16 16 15 13 10 8 8 7 7 7
3 3 5 9 5 4 5 16 15 6 1 9 4 6 11 16 15 19 18 21 24 24 20 15 11 10 12 15 16 17 17 20 21 22 21 18 15 14 13 12 10 9 9 9
3 3 0 2 6 4 10 19 16 10 3 6 8 12 17 18 16 18 23 24 27 31 28 24 20 20 22 23 24 25 25 25 27 27 28 26 26 25 26 24 23 21 21 21
3 2 3 10 8 2 10 14 17 13 13 4 7 11 15 16 16 22 27 29 31 36 33 30 25 26 30 32 30 30 32 30 29 32 31 31 29 28 29 28 25 25 25 25
4 3 2 5 4 7 6 15 15 9 13 5 8 9 10 18 27 30 30 31 31 31 31 30 29 33 35 35 36 36 34 33 31 31 31 28 29 28 27 26 25 23 23 21
2 2 3 4 5 3 5 12 8 5 15 7 8 4 10 16 20 27 27 30 29 29 30 32 34 34 35 38 37 36 33 31 31 30 30 27 25 25 25 24 22 22 21 19
1 2 1 4 4 5 5 0 3 2 11 14 12 13 7 8 18 28 30 28 29 30 33 33 34 35 37 37 38 35 33 33 32 31 29 27 25 24 25 23 23 22 21 20
8 2 3 2 1 4 4 3 4 3 5 10 8 11 16 13 9 28 31 29 28 29 31 32 34 34 36 36 35 34 33 32 32 31 28 25 24 24 22 22 21 20 18 18
1 2 3 3 5 2 3 1 1 2 4 11 13 12 11 13 9 6 23 26 28 30 30 31 31 32 32 31 30 31 31 30 31 28 26 24 23 24 23 21 21 19 17 18
3 3 3 1 1 6 3 8 3 5 3 5 8 11 14 6 5 7 14 21 24 26 26 25 26 30 28 26 26 28 27 29 26 23 21 22 21 21 21 18 18 16 15 14
4 3 2 2 4 3 2 2 2 5 4 4 6 7 10 11 12 14 17 20 22 23 23 23 23 24 23 22 21 22 24 23 20 18 19 19 18 18 17 15 15 13 13 11
2 5 3 6 5 2 2 5 8 8 10 6 6 7 8 10 12 13 15 17 18 20 20 19 18 18 19 19 18 18 19 17 16 14 14 13 13 13 13 12 11 10 11 10
3 5 2 4 3 5 6 7 9 9 9 11 9 7 8 10 10 11 12 13 15 17 17 17 15 17 19 20 20 21 19 17 14 12 11 10 10 9 7 7 6 6 6 6
3 8 4 5 5 3 10 12 13 13 12 11 11 10 8 7 8 7 8 10 11 13 13 13 14 16 17 18 18 18 17 16 15 15 14 11 8 7 6 6 6 5 5 5
11 7 5 5 12 6 13 19 17 16 14 12 9 8 6 6 6 5 5 6 7 9 11 9 10 11 13 15 17 18 17 17 16 14 13 12 11 10 8 7 7 7 7 7
Wind_Direction
337 279 270 248 223 253 270 267 267 270 274 277 271 268 272 269 259 260 263 268 273 271 257 238 239 252 249 243 243 241 248 245 243 243 225 214 221 218 214 217 213 213 209 213
358 255 266 264 280 274 271 275 275 278 276 265 276 270 264 260 255 249 249 246 252 258 260 250 245 247 248 249 249 237 236 234 236 244 238 233 210 216 220 218 217 216 216 216
258 264 306 298 301 295 280 267 274 274 292 274 268 273 264 258 250 251 255 252 245 244 248 249 236 238 243 245 242 241 240 247 233 240 240 230 219 224 223 215 220 219 216 224
284 277 280 314 298 291 288 254 292 289 296 304 124 294 82 262 237 254 256 259 241 245 250 251 244 230 239 247 244 235 240 245 237 230 234 230 230 214 200 231 230 223 219 217
275 304 307 305 275 290 271 292 280 275 274 289 243 256 283 340 18 346 332 329 345 275 249 238 235 230 235 241 244 237 242 239 238 231 228 233 217 218 212 218 225 225 230 220
262 278 267 233 290 295 290 299 286 272 250 245 302 178 314 23 337 327 330 327 317 310 313 253 232 232 233 237 242 244 243 238 240 227 224 234 227 220 207 211 216 223 230 221
326 299 289 261 313 296 328 338 310 1 343 223 286 178 278 7 351 331 319 311 303 301 299 297 221 222 224 230 240 248 253 255 235 235 225 233 231 230 223 221 222 226 224 237
37 332 358 307 317 323 314 288 287 313 312 286 180 250 196 12 343 337 326 312 294 287 288 231 195 201 211 227 235 243 243 236 228 233 232 234 233 214 220 223 234 230 227 240
351 285 324 327 331 5 327 316 296 260 247 260 202 344 75 352 346 339 345 348 115 104 109 132 167 187 201 218 230 234 230 225 222 222 218 219 211 229 230 205 219 224 225 235
277 290 220 287 357 310 289 297 330 292 312 296 5 60 332 344 343 347 343 355 12 77 90 104 131 160 185 214 230 224 228 218 212 208 199 211 203 200 199 206 213 224 234 250
255 186 297 1 2 1 2 2 348 287 25 326 326 62 358 346 336 337 339 1 21 62 77 87 105 164 180 207 213 205 205 204 194 188 181 187 197 204 207 219 223 229 239 239
275 299 294 254 20 25 12 0 11 353 4 319 287 344 18 344 341 343 356 17 35 67 78 92 108 151 168 171 167 173 174 171 164 164 154 156 157 168 179 177 171 185 196 211
319 305 310 341 336 359 7 11 7 344 292 31 352 314 351 352 359 5 14 29 45 63 76 88 104 112 130 137 134 136 143 144 141 138 135 131 130 130 134 132 125 125 128 124
315 275 352 277 299 339 358 2 2 5 27 337 11 331 351 360 1 11 21 34 48 57 63 80 86 96 106 113 116 118 118 119 121 122 117 118 116 114 110 108 107 106 103 102
85 198 311 271 251 206 6 9 356 6 1 21 352 11 359 360 356 14 27 29 41 47 53 63 69 84 94 98 106 107 105 104 106 110 110 108 108 108 108 106 103 102 101 98
10 272 354 292 281 206 352 5 4 358 359 342 355 41 1 9 20 20 26 29 36 39 49 61 64 86 89 92 92 95 97 97 98 95 95 100 103 103 101 102 103 103 99 98
33 43 28 286 349 66 15 356 337 329 9 344 7 17 37 26 26 21 20 30 35 43 54 61 68 77 84 85 89 88 89 91 91 89 88 85 86 90 92 93 94 92 93 94
300 65 153 261 10 34 235 51 238 192 25 11 6 0 13 84 48 36 38 38 43 57 68 72 76 78 78 81 82 85 85 85 85 85 81 79 83 84 85 86 85 88 91 94
210 104 328 62 116 280 324 20 340 14 8 17 360 1 4 28 22 33 43 55 61 66 70 74 76 75 75 76 79 80 81 81 81 78 77 77 77 80 82 83 82 82 85 88
315 92 124 23 108 174 250 316 291 188 17 11 11 13 358 22 53 5 32 55 61 65 64 67 69 74 75 77 82 86 82 81 80 80 81 82 83 81 80 79 81 81 82 83
347 355 154 1 168 290 251 303 148 74 245 33 36 36 37 64 63 42 62 64 66 67 69 71 72 71 72 73 75 78 79 75 73 76 79 79 77 80 79 79 80 81 79 78
186 128 238 73 56 308 344 104 172 150 114 110 86 66 70 79 82 77 72 69 69 69 68 66 67 70 71 70 71 73 72 73 73 71 72 73 75 77 79 76 76 73 73 69
315 186 197 171 215 227 69 117 133 140 146 148 113 102 98 92 88 81 73 66 60 54 51 52 54 61 65 64 63 66 67 68 67 63 64 66 66 66 67 68 71 69 64 59
258 178 199 46 275 222 181 160 159 160 159 152 145 129 127 112 94 77 66 55 47 43 40 39 43 53 57 54 49 47 44 42 39 38 40 42 41 43 45 50 49 43 38 35
195 141 189 269 269 217 220 198 179 172 171 167 160 151 137 119 109 92 66 50 41 34 33 43 57 60 60 56 50 44 39 33 25 22 19 13 5 356 354 354 356 353 347 341
189 186 165 221 198 180 194 187 184 182 178 176 176 168 152 140 128 99 67 43 34 29 33 43 51 52 50 42 32 23 17 13 9 4 359 357 354 351 347 329 322 317 314 312